Location: Aldenham
(51.6667°N, 0.3500°W)
Time: 20:12:56
(UTC+00:00)

Explorer 7 - All Passes

Search period start: 14 February 2026 00:00
Search period end: 24 February 2026 00:00
Orbit: 431 x 545 km, 50.2° (Epoch: 13 February)

Date Brightness Start Highest point End Pass type
(mag) Time Alt. Az. Time Alt. Az. Time Alt. Az.
14 Feb - 16:34:52 10° SSW 16:37:49 23° SSE 16:40:52 10° E daylight
14 Feb - 18:12:09 10° WSW 18:15:49 60° SSE 18:19:37 10° E visible
14 Feb - 19:50:22 10° W 19:54:09 69° S 19:58:05 10° ESE visible
14 Feb - 21:28:48 10° W 21:32:21 34° SSW 21:36:00 10° SE visible
15 Feb - 16:09:22 10° SSW 16:12:15 23° SSE 16:15:14 10° E daylight
15 Feb - 17:46:37 10° WSW 17:50:14 59° SSE 17:54:02 10° E visible
15 Feb - 19:24:49 10° W 19:28:35 69° S 19:32:29 10° ESE visible
15 Feb - 21:03:14 10° W 21:06:46 35° SSW 21:10:25 10° SE visible
15 Feb - 22:43:56 10° SW 22:44:26 10° SW 22:44:57 10° SW night (unlit)
16 Feb - 15:43:51 10° SSW 15:46:40 22° SSE 15:49:35 10° E daylight
16 Feb - 17:21:02 10° WSW 17:24:38 58° SSE 17:28:23 10° E daylight
16 Feb - 18:59:14 10° W 19:02:57 70° S 19:06:51 10° ESE visible
16 Feb - 20:37:38 10° W 20:41:10 35° SSW 20:44:48 10° SE visible
16 Feb - 22:18:02 10° SW 22:18:50 11° SW 22:19:39 10° SSW night (unlit)
17 Feb - 15:18:18 10° SSW 15:21:04 21° SE 15:23:53 10° E daylight
17 Feb - 16:55:26 10° WSW 16:59:00 57° SSE 17:02:43 10° E daylight
17 Feb - 18:33:36 10° W 18:37:18 70° S 18:41:11 10° ESE visible
17 Feb - 20:12:00 10° W 20:15:31 36° SSW 20:19:09 10° SE visible
17 Feb - 21:52:12 10° WSW 21:53:13 11° SW 21:54:14 10° SSW visible
18 Feb - 14:52:44 10° SSW 14:55:24 20° SE 14:58:09 10° E daylight
18 Feb - 16:29:47 10° WSW 16:33:19 56° SSE 16:37:01 10° E daylight
18 Feb - 18:07:57 10° W 18:11:38 70° S 18:15:28 10° ESE visible
18 Feb - 19:46:20 10° W 19:49:50 37° SSW 19:53:28 10° SE visible
18 Feb - 21:26:22 10° WSW 21:27:33 11° SW 21:28:44 10° SSW visible
19 Feb - 14:27:07 10° SSW 14:29:43 19° SE 14:32:24 10° E daylight
19 Feb - 16:04:07 10° WSW 16:07:37 55° SSE 16:11:17 10° E daylight
19 Feb - 17:42:16 10° W 17:45:56 71° S 17:49:44 10° E daylight
19 Feb - 19:20:38 10° W 19:24:08 37° SSW 19:27:44 10° SE visible
19 Feb - 21:00:32 10° WSW 21:01:51 11° SW 21:03:10 10° SSW visible
20 Feb - 14:01:29 10° S 14:04:00 19° SE 14:06:36 10° E daylight
20 Feb - 15:38:24 10° WSW 15:41:54 53° SSE 15:45:31 10° E daylight
20 Feb - 17:16:33 10° W 17:20:10 71° S 17:23:58 10° E daylight
20 Feb - 18:54:54 10° W 18:58:22 38° SSW 19:01:59 10° SE visible
20 Feb - 20:34:40 10° WSW 20:36:07 12° SW 20:37:33 10° SSW visible
21 Feb - 13:35:48 10° S 13:38:15 18° SE 13:40:46 10° E daylight
21 Feb - 15:12:39 10° WSW 15:16:07 52° SSE 15:19:43 10° E daylight
21 Feb - 16:50:47 10° W 16:54:24 71° S 16:58:09 10° E daylight
21 Feb - 18:29:08 10° W 18:32:36 39° SSW 18:36:12 10° SE visible
21 Feb - 20:08:48 10° WSW 20:10:20 12° SW 20:11:54 10° SSW visible
22 Feb - 13:10:07 10° S 13:12:28 17° SE 13:14:53 10° E daylight
22 Feb - 14:46:54 10° WSW 14:50:19 51° SSE 14:53:53 10° E daylight
22 Feb - 16:25:00 10° W 16:28:35 71° S 16:32:18 10° E daylight
22 Feb - 18:03:20 10° W 18:06:48 39° SSW 18:10:23 10° SE visible
22 Feb - 19:42:54 10° WSW 19:44:33 12° SW 19:46:12 10° SSW visible
23 Feb - 12:44:23 10° S 12:46:40 17° SE 12:48:59 10° ESE daylight
23 Feb - 14:21:05 10° WSW 14:24:29 50° SSE 14:28:00 10° E daylight
23 Feb - 15:59:10 10° W 16:02:44 71° S 16:06:27 10° E daylight
23 Feb - 17:37:30 10° W 17:40:57 40° SSW 17:44:31 10° SE daylight
23 Feb - 19:16:59 10° WSW 19:18:42 13° SW 19:20:27 10° SSW visible
